الصفحة الرئيسية
METAR-TAF:

METAR-TAF

مطار :

Show Low, أريزونا, الولايات المتحدة

دائرة عرض: 34-16N, خط طول: 110-00W, ارتفاع: 1954 متر

مراقبة الطقس الحالي

تاريخ ووقت الإصدار 26 دقيقة قبل الساعة 17:35UTC
ريح 13 عقدة من الجنوب
درجة الحرارة 16°درجة مئوية
الرطوبة 23%
ضغط 1019 hPa
الرؤية: 16.1 كم
سماء صافية

METAR: KSOW 221735Z AUTO 18013KT 10SM CLR 16/M05 A3008 RMK A01

زمن: 11:01 (18:01 UTC)


TAF: مفقودة

أرصاد الطقس والتوقعات من أكثر من 4000 مطار (تقارير الطقس للمطار METAR والتنبؤ بالطقس بالمطارTAF).

المحطات المتاحة هي النقط الصفراء والحمراء على الخريطة.

حرك المؤشر فوق النقطة لمعرفة اسم المحطة.

ثم انقر لمعرفة أرصاد وتوقعات الطقس.

لتغيير الخارطة: اضغط على الأزرار الخضراء مع رمز الصليب الأسود للتكبير. على الزر الأخضر مع شرطة للتصغير، أو على الأسهم الخضراء للخرائط المجاورة.


METAR-TAF: